Location: Boiro
(42.6475°N, 8.8834°W)
Time: 17:28:16
(UTC+01:00)

Transit 2A - Pass Details

Date: 06 December 2021
Orbit: 591 x 967 km, 66.7° (Epoch: 20 January)

Event Time Altitude Azimuth Distance (km) Brightness Sun altitude
Rises 23:35:22 0° 168° (SSE) 3,253 - -59.4°
Reaches altitude 10° 23:38:10 10° 153° (SSE) 2,397 - -59.8°
Maximum altitude 23:42:21 22° 104° (ESE) 1,790 - -60.5°
Drops below altitude 10° 23:46:48 10° 56° (ENE) 2,588 - -61.1°
Sets 23:49:57 0° 43° (NE) 3,584 - -61.6°
